Meteo Giornale » Osservazioni meteo Italia » Firenze-Peretola

ore: 04:50 - Osservazioni Meteo Firenze-Peretola
Lat. 43° 48' N Lon. 11° 12' E Alt. 40 metri s.l.m.

sereno Europe/Rome

21 °C

Sereno

Temp. 24 Ore

21 °C

31 °C

Nord

5.5 Km/h

Dew point 14 °C

Umidità 64 %

Visibilità  10 Km

Il sole sorge alle ore 06:58

Il sole tramonta alle ore 19:19

Data e Ora Cielo e Fenomeni T °C DP °C Um. % Pres. hPa Vis. km Vento km/h
Oggi h: 04:50 sereno Sereno 21 14 64 1018 10 N 5.5
Oggi h: 04:20 sereno Sereno 21 15 68 1018 10 N 7.4
Oggi h: 03:50 sereno Sereno 21 15 68 1018 10 N 1.8
Oggi h: 03:20 sereno Sereno 21 14 64 1018 10 S/SO 7.4
Oggi h: 02:50 sereno Sereno 22 14 60 1018 10 S 7.4
Oggi h: 02:20 sereno Sereno 22 14 60 1018 10 S/SO 7.4
Oggi h: 01:50 sereno Sereno 22 14 60 1018 10 N 3.7
Oggi h: 01:20 sereno Sereno 23 14 56 1019 10 N/NO 9.3
Oggi h: 00:50 sereno Sereno 23 14 56 1019 10 N 5.5
Oggi h: 00:20 sereno Sereno 22 14 60 1019 10 N 1.8
Ieri h: 23:50 sereno Sereno 24 14 53 1019 10 E/NE 13
Ieri h: 23:20 sereno Sereno 23 15 60 1019 10 N 3.7
Ieri h: 22:50 sereno Sereno 23 15 60 1018 10 N 5.5
Ieri h: 22:20 sereno Sereno 24 15 57 1018 10 E/NE 9.3
Ieri h: 21:50 sereno Sereno 26 15 50 1018 10 N 11.1
Ieri h: 21:20 sereno Sereno 25 15 53 1018 10 E/NE 9.3
Ieri h: 20:50 sereno Sereno 26 15 50 1018 10 E 9.3
Ieri h: 20:20 sereno Sereno 27 15 47 1017 10 SE 11.1
Ieri h: 19:50 sereno Sereno 27 15 47 1017 10 SE 7.4
Ieri h: 19:20 sereno Sereno 28 15 45 1017 10 N 7.4
Ieri h: 18:50 sereno Sereno 28 14 42 1017 10 N 11.1
Ieri h: 17:50 sereno Sereno 29 15 42 1017 10 N/NE 24
Ieri h: 17:20 sereno Sereno 30 14 37 1017 10 N/NE 20.3
Ieri h: 16:50 sereno Sereno 30 14 37 1017 10 N 20.3
Ieri h: 16:20 poco_nuvoloso Poco Nuvoloso 31 14 35 1017 10 N 18.5
Ieri h: 15:50 poco_nuvoloso Poco Nuvoloso 31 14 35 1017 10 N 24
Ieri h: 15:20 poco_nuvoloso Poco Nuvoloso 31 15 37 1017 10 N/NE 20.3
Ieri h: 13:50 sereno Sereno 31 14 35 1017 10 N 18.5
Ieri h: 13:20 sereno Sereno 31 15 37 1018 10 N/NE 14.8
Ieri h: 12:50 sereno Sereno 31 15 37 1018 10 N/NE 14.8
Ieri h: 12:20 sereno Sereno 29 15 42 1018 10 N 16.7
Ieri h: 11:50 sereno Sereno 29 15 42 1018 10 N/NE 16.7
Ieri h: 11:20 poco_nuvoloso Poco Nuvoloso 29 15 42 1018 10 N/NE 16.7
Ieri h: 10:50 sereno Sereno 28 15 45 1018 10 E/NE 18.5
Ieri h: 10:20 poco_nuvoloso Poco Nuvoloso 28 15 45 1018 10 N 7.4
Ieri h: 09:50 poco_nuvoloso Poco Nuvoloso 27 16 50 1018 10 N 5.5
Ieri h: 09:20 sereno Sereno 26 16 54 1018 10 S/SO 7.4
Ieri h: 08:50 sereno Sereno 25 17 61 1018 10 N 5.5
Ieri h: 08:20 sereno Sereno 23 17 68 1017 10 N 3.7
Ieri h: 07:50 sereno Sereno 21 16 73 1017 10 N 5.5
Ieri h: 07:20 sereno Sereno 22 16 68 1017 10 N 3.7
Ieri h: 06:50 sereno Sereno 22 16 68 1017 10 N 5.5
Ieri h: 06:20 sereno Sereno 23 16 64 1017 10 N 3.7
Ieri h: 05:50 sereno Sereno 24 16 60 1017 10 N 5.5